Regional Weather Roundup
Issued by NWS Bismarck, ND

Home | Current Version | Previous Version | Text Only | Print | Product List | Glossary On
Versions: 1 2 3 4 5 6 7 8 9 10 11 12 13 14 15 16 17 18 19 20 21 22 23 24 25 26 27 28 29 30 31 32 33 34 35 36 37 38 39 40 41 42 43 44 45 46 47 48 49 50
000
ASUS43 KBIS 230602
RWRBIS

NWR BROADCAST TEXT
NATIONAL WEATHER SERVICE BISMARCK ND
1200 AM CST FRI FEB 23 2018

NOTE: "FAIR" INDICATES FEW OR NO CLOUDS BELOW 12,000 FEET WITH NO
SIGNIFICANT WEATHER AND/OR OBSTRUCTIONS TO VISIBILITY.


CITY           SKY/WX    TMP DP  RH WIND       PRES   REMARKS
WILLISTON      FAIR      -8 -12  83 SW5       30.24S WCI -19
MINOT          FAIR       4  -2  76 W7        30.21S WCI  -8
MINOT AFB      CLOUDY    -1  -6  77 NW9       30.20F WCI -16
BISMARCK       LGT SNOW  16  10  77 NW8       30.20S WCI   5
DICKINSON      FAIR      -1  -6  79 W10       30.14S WCI -17
GARRISON         N/A      2  -3  80 NW12      30.19F WCI -15
HETTINGER ARPT PTCLDY     0  -5  79 NW12      30.14F WCI -17
JAMESTOWN      LGT SNOW  19  17  92 N5        30.16F VSB 1   WCI  12
CARRINGTON     LGT SNOW  16  14  93 NW7       30.20S WCI   6
HAZEN            N/A      9   1  72 W9        30.22F WCI  -5
LINTON         LGT SNOW  18  16  93 CALM      30.18S
MANDAN         CLOUDY    14   9  79 NW9       30.17F WCI   2
OAKES            N/A     19  19 100 NE5       30.16F WCI  13
RUGBY          FAIR      -2  -6  84 NW6       30.21S WCI -14
STANLEY        FAIR      -8 -11  84 W6        30.20S WCI -21
TIOGA          FAIR      -8  -9  92 W8        30.20S WCI -23
WATFORD CITY   FAIR      -8 -11  84 SW6       30.23S WCI -21
$$

CITY           SKY/WX    TMP DP  RH WIND       PRES   REMARKS
GRAND FORKS    CLOUDY    20  15  81 CALM      30.23F
GRAND FORKS AF FLURRIES  19  14  81 NW3       30.22F
DEVILS LAKE    MOCLDY     6   3  87 NW3       30.20F
FARGO          LGT SNOW  22  20  92 N3        30.20F VSB 3/4
CANDO          MOCLDY     1  -2  85 CALM      30.22S
CAVALIER         N/A      3   1  92 W5        30.24S WCI  -6
GRAFTON        FAIR      10   9  92 CALM      30.26S
GWINNER          N/A     21  19  93 CALM      30.16F FOG
LANGDON        FAIR       0   0 100 CALM      30.19S
ROLLA          FAIR       5  -2  72 SW9       30.19R WCI  -9
WALHALLA       FAIR      10   9  92 VRB5G12   30.23F WCI   2
$$

CITY           SKY/WX    TMP DP  RH WIND       PRES   REMARKS
ABERDEEN       LGT SNOW  22  20  92 NE6       30.16S FOG     WCI  14
MOBRIDGE       LGT SNOW  19  15  84 NW9       30.12F FOG     WCI   8
BUFFALO          N/A      4  -2  76 NW14      30.05R WCI -14
RAPID CITY     PTCLDY     5  -2  72 NW10      30.11R WCI -10
GLASGOW        MOCLDY   -11 -16  78 N7        30.26F WCI -26
SIDNEY         CLEAR    -13 -18  78 CALM      30.27R
WOLF POINT     PTCLDY   -11 -17  75 SW9       30.29F WCI -29
GLENDIVE       CLEAR     -4 -11  72 NW8       30.23R WCI -19
MILES CITY     MOCLDY    -9 -14  78 W7        30.23S WCI -24
BAKER          PTCLDY    -5  -8  87 W3        30.18R
$$

CITY           SKY/WX    TMP DP  RH WIND       PRES   REMARKS
BILLINGS       MOCLDY     4  -2  76 N6        30.16F WCI  -7
GREAT FALLS    CLEAR     -5 -10  79 SW7       30.15F WCI -19
$$





USA.gov is the U.S. government's official web portal to all federal, state and local government web resources and services.